Location: Melbourne
(37.8170°S, 144.9670°E)
Time: 02:33:36
(UTC+11:00)

CZ-3 R/B - Visible Passes

Search period start: 07 February 2016 00:00
Search period end: 17 February 2016 00:00
Orbit: 194 x 11440 km, 28.4° (Epoch: 05 February)

Date Brightness Start Highest point End Pass type
(mag) Time Alt. Az. Time Alt. Az. Time Alt. Az.
07 Feb 5.7 00:10:18 10° W 01:47:25 70° NNW 02:26:48 10° ENE visible
07 Feb 5.0 05:15:40 10° WSW 06:00:39 24° WNW 06:16:42 10° NNW visible
07 Feb 6.1 22:13:44 10° WNW 23:32:58 75° N 00:37:56 10° ENE visible
08 Feb 5.2 02:47:54 10° W 04:11:49 47° NW 04:35:30 10° NNE visible
08 Feb 6.5 20:23:16 10° NW 21:15:18 68° NNE 22:43:43 10° E visible
09 Feb 5.6 00:37:01 10° W 02:13:41 66° NNW 02:50:15 10° NE visible
09 Feb 5.1 05:52:01 10° W 06:22:08 17° WNW 06:36:09 10° NW visible
09 Feb 6.0 22:37:49 10° WNW 00:01:03 75° N 01:01:23 10° ENE visible
10 Feb 5.2 03:16:49 10° WSW 04:33:37 40° NW 04:56:49 10° NNE visible
10 Feb 6.4 20:45:22 10° WNW 21:40:44 72° NNE 23:07:24 10° E visible
11 Feb 5.6 01:01:59 10° W 02:36:55 61° NW 03:11:37 10° NE visible
11 Feb 5.3 06:34:17 10° W 06:41:34 11° WNW 06:47:20 10° WNW visible
11 Feb 6.3 18:56:57 10° NW 19:31:38 57° NE 21:05:00 10° E visible
11 Feb 6.0 23:00:12 10° W 00:26:19 73° NNW 01:22:41 10° ENE visible
12 Feb 5.2 03:44:19 10° WSW 04:52:58 33° WNW 05:15:52 10° N visible
12 Feb 6.3 21:05:50 10° WNW 22:04:38 74° N 23:28:49 10° E visible
13 Feb 5.5 01:25:07 10° W 02:57:19 55° NW 03:30:54 10° NNE visible
13 Feb 6.4 19:15:47 10° NW 19:51:38 63° NNE 21:27:00 10° E visible
13 Feb 5.9 23:20:48 10° W 00:48:37 71° NNW 01:41:53 10° NE visible
14 Feb 5.3 04:10:44 10° WSW 05:10:04 26° WNW 05:32:30 10° NNW visible
14 Feb 6.3 21:24:35 10° WNW 22:26:40 75° N 23:48:03 10° ENE visible
15 Feb 5.5 01:46:25 10° W 03:15:01 49° NW 03:48:07 10° NNE visible
15 Feb 6.4 19:32:59 10° NW 20:10:10 67° NNE 21:46:35 10° E visible
15 Feb 5.9 23:39:34 10° W 01:07:55 67° NNW 01:59:01 10° NE visible
16 Feb 5.4 04:36:46 10° WSW 05:25:01 21° WNW 05:46:23 10° NNW visible
